Terminal Aerodrome Forecast
Issued by NWS Wilmington, OH

Current Version | Previous Version | Text Only | Print | Product List | Glossary Off
Versions: 1 2 3 4 5 6 7 8 9 10 11 12 13 14 15 16

605
FTUS41 KILN 040541
TAFDAY
TAF
KDAY 040541Z 0406/0506 26016G25KT P6SM OVC015
     FM040900 27013KT P6SM OVC015
     FM041500 27010KT P6SM BKN025
     FM042200 28007KT P6SM SCT025
     FM050200 26006KT P6SM SKC=

USA.gov is the U.S. government's official web portal to all federal, state and local government web resources and services.